Time,TemperatureF,DewpointF,PressureIn,WindDirection,WindDirectionDegrees,WindSpeedMPH,WindSpeedGustMPH,Humidity,HourlyPrecipIn,Conditions,Clouds,dailyrainin,SolarRadiationWatts/m^2,SoftwareType,DateUTC
2013-08-31 00:22:00,60.0,57.0,-100.00,SW,231,1.0,5.0,89,0.00,,,0.00,0.000000,,2013-08-31 07:22:00,
2013-08-31 00:32:00,60.0,57.0,-100.00,SW,231,1.0,5.0,89,0.00,,,0.00,0.000000,,2013-08-31 07:32:00,
2013-08-31 00:42:00,60.0,57.0,-100.00,SW,231,1.0,5.0,89,0.00,,,0.00,0.000000,,2013-08-31 07:42:00,
2013-08-31 00:50:00,59.0,56.0,-100.00,East,93,1.0,4.0,90,0.00,,,0.00,0.000000,,2013-08-31 07:50:00,
2013-08-31 01:22:00,59.0,56.0,-100.00,East,93,1.0,4.0,90,0.00,,,0.00,0.000000,,2013-08-31 08:22:00,
2013-08-31 01:32:00,59.0,56.0,-100.00,East,93,1.0,4.0,90,0.00,,,0.00,0.000000,,2013-08-31 08:32:00,
2013-08-31 01:42:00,59.0,56.0,-100.00,East,93,1.0,4.0,90,0.00,,,0.00,0.000000,,2013-08-31 08:42:00,
2013-08-31 01:50:00,58.0,56.0,-100.00,ENE,71,1.0,4.0,92,0.00,,,0.00,0.000000,,2013-08-31 08:50:00,
2013-08-31 02:23:00,58.0,56.0,-100.00,ENE,71,1.0,4.0,92,0.00,,,0.00,0.000000,,2013-08-31 09:23:00,
2013-08-31 02:33:00,58.0,56.0,-100.00,ENE,71,1.0,4.0,92,0.00,,,0.00,0.000000,,2013-08-31 09:33:00,
2013-08-31 02:43:00,58.0,56.0,-100.00,ENE,71,1.0,4.0,92,0.00,,,0.00,0.000000,,2013-08-31 09:43:00,
2013-08-31 02:50:00,57.0,56.0,-100.00,ESE,108,2.0,3.0,95,0.00,,,0.00,0.000000,,2013-08-31 09:50:00,
2013-08-31 03:23:00,57.0,56.0,-100.00,ESE,108,2.0,3.0,95,0.00,,,0.00,0.000000,,2013-08-31 10:23:00,
2013-08-31 03:33:00,57.0,56.0,-100.00,ESE,108,2.0,3.0,95,0.00,,,0.00,0.000000,,2013-08-31 10:33:00,
2013-08-31 03:43:00,57.0,56.0,-100.00,ESE,108,2.0,3.0,95,0.00,,,0.00,0.000000,,2013-08-31 10:43:00,
2013-08-31 03:50:00,55.0,54.0,-100.00,SSE,153,1.0,5.0,96,0.00,,,0.00,0.000000,,2013-08-31 10:50:00,
2013-08-31 04:21:00,55.0,54.0,-100.00,SSE,153,1.0,5.0,96,0.00,,,0.00,0.000000,,2013-08-31 11:21:00,
2013-08-31 04:33:00,55.0,54.0,-100.00,SSE,153,1.0,5.0,96,0.00,,,0.00,0.000000,,2013-08-31 11:33:00,
2013-08-31 04:42:00,55.0,54.0,-100.00,SSE,153,1.0,5.0,96,0.00,,,0.00,0.000000,,2013-08-31 11:42:00,
2013-08-31 04:50:00,56.0,55.0,-100.00,NW,307,3.0,6.0,97,0.00,,,0.00,0.000000,,2013-08-31 11:50:00,
2013-08-31 05:22:00,56.0,55.0,-100.00,NW,307,3.0,6.0,97,0.00,,,0.00,0.000000,,2013-08-31 12:22:00,
2013-08-31 05:31:00,56.0,55.0,-100.00,NW,307,3.0,6.0,97,0.00,,,0.00,0.000000,,2013-08-31 12:31:00,
2013-08-31 05:42:00,56.0,55.0,-100.00,NW,307,3.0,6.0,97,0.00,,,0.00,0.000000,,2013-08-31 12:42:00,
2013-08-31 05:50:00,56.0,56.0,-100.00,NW,325,5.0,7.0,99,0.00,,,-99.99,0.000000,,2013-08-31 12:50:00,
2013-08-31 06:22:00,56.0,56.0,-100.00,NW,325,5.0,7.0,99,0.00,,,-99.99,0.000000,,2013-08-31 13:22:00,
2013-08-31 06:31:00,56.0,56.0,-100.00,NW,325,5.0,7.0,99,0.00,,,-99.99,0.000000,,2013-08-31 13:31:00,
2013-08-31 06:42:00,56.0,56.0,-100.00,NW,325,5.0,7.0,99,0.00,,,-99.99,0.000000,,2013-08-31 13:42:00,
2013-08-31 06:50:00,56.0,56.0,-100.00,NNW,339,3.0,6.0,99,0.00,,,0.00,1.000000,,2013-08-31 13:50:00,
2013-08-31 07:22:00,56.0,56.0,-100.00,NNW,339,3.0,6.0,99,0.00,,,0.00,1.000000,,2013-08-31 14:22:00,
2013-08-31 07:32:00,56.0,56.0,-100.00,NNW,339,3.0,6.0,99,0.00,,,0.00,1.000000,,2013-08-31 14:32:00,
2013-08-31 07:42:00,56.0,56.0,-100.00,NNW,339,3.0,6.0,99,0.00,,,0.00,1.000000,,2013-08-31 14:42:00,
2013-08-31 07:50:00,56.0,55.0,-100.00,West,281,3.0,6.0,98,0.00,,,0.00,20.000000,,2013-08-31 14:50:00,
2013-08-31 08:23:00,56.0,55.0,-100.00,West,281,3.0,6.0,98,0.00,,,0.00,20.000000,,2013-08-31 15:23:00,
2013-08-31 08:34:00,56.0,55.0,-100.00,West,281,3.0,6.0,98,0.00,,,0.00,20.000000,,2013-08-31 15:34:00,
2013-08-31 08:44:00,56.0,55.0,-100.00,West,281,3.0,6.0,98,0.00,,,0.00,20.000000,,2013-08-31 15:44:00,
2013-08-31 08:50:00,58.0,57.0,-100.00,NNW,341,4.0,6.0,97,0.00,,,0.00,97.000000,,2013-08-31 15:50:00,
2013-08-31 09:25:00,58.0,57.0,-100.00,NNW,341,4.0,6.0,97,0.00,,,0.00,97.000000,,2013-08-31 16:25:00,
2013-08-31 09:34:00,58.0,57.0,-100.00,NNW,341,4.0,6.0,97,0.00,,,0.00,97.000000,,2013-08-31 16:34:00,
2013-08-31 09:44:00,58.0,57.0,-100.00,NNW,341,4.0,6.0,97,0.00,,,0.00,97.000000,,2013-08-31 16:44:00,
2013-08-31 09:50:00,63.0,58.0,-100.00,WNW,290,4.0,7.0,85,0.00,,,0.00,329.000000,,2013-08-31 16:50:00,
2013-08-31 10:23:00,63.0,58.0,-100.00,WNW,290,4.0,7.0,85,0.00,,,0.00,329.000000,,2013-08-31 17:23:00,
2013-08-31 10:34:00,63.0,58.0,-100.00,WNW,290,4.0,7.0,85,0.00,,,0.00,329.000000,,2013-08-31 17:34:00,
2013-08-31 10:42:00,63.0,58.0,-100.00,WNW,290,4.0,7.0,85,0.00,,,0.00,329.000000,,2013-08-31 17:42:00,
2013-08-31 10:50:00,67.0,58.0,-100.00,NNW,348,7.0,10.0,74,0.00,,,0.00,621.000000,,2013-08-31 17:50:00,
2013-08-31 11:21:00,67.0,58.0,-100.00,NNW,348,7.0,10.0,74,0.00,,,0.00,621.000000,,2013-08-31 18:21:00,
2013-08-31 11:32:00,67.0,58.0,-100.00,NNW,348,7.0,10.0,74,0.00,,,0.00,621.000000,,2013-08-31 18:32:00,
2013-08-31 11:42:00,67.0,58.0,-100.00,NNW,348,7.0,10.0,74,0.00,,,0.00,621.000000,,2013-08-31 18:42:00,
2013-08-31 11:50:00,74.0,60.0,-100.00,WNW,290,5.0,10.0,61,0.00,,,0.00,750.000000,,2013-08-31 18:50:00,
2013-08-31 12:22:00,74.0,60.0,-100.00,WNW,290,5.0,10.0,61,0.00,,,0.00,750.000000,,2013-08-31 19:22:00,
2013-08-31 12:32:00,74.0,60.0,-100.00,WNW,290,5.0,10.0,61,0.00,,,0.00,750.000000,,2013-08-31 19:32:00,
2013-08-31 12:42:00,74.0,60.0,-100.00,WNW,290,5.0,10.0,61,0.00,,,0.00,750.000000,,2013-08-31 19:42:00,
2013-08-31 12:50:00,78.0,57.0,-100.00,NNW,341,8.0,11.0,48,0.00,,,0.00,837.000000,,2013-08-31 19:50:00,
2013-08-31 13:22:00,78.0,57.0,-100.00,NNW,341,8.0,11.0,48,0.00,,,0.00,837.000000,,2013-08-31 20:22:00,
2013-08-31 13:32:00,78.0,57.0,-100.00,NNW,341,8.0,11.0,48,0.00,,,0.00,837.000000,,2013-08-31 20:32:00,
2013-08-31 13:42:00,78.0,57.0,-100.00,NNW,341,8.0,11.0,48,0.00,,,0.00,837.000000,,2013-08-31 20:42:00,
2013-08-31 13:50:00,80.0,56.0,-100.00,NW,315,12.0,16.0,44,0.00,,,0.00,826.000000,,2013-08-31 20:50:00,
2013-08-31 14:22:00,80.0,56.0,-100.00,NW,315,12.0,16.0,44,0.00,,,0.00,826.000000,,2013-08-31 21:22:00,
2013-08-31 14:34:00,80.0,56.0,-100.00,NW,315,12.0,16.0,44,0.00,,,0.00,826.000000,,2013-08-31 21:34:00,
2013-08-31 14:44:00,80.0,56.0,-100.00,NW,315,12.0,16.0,44,0.00,,,0.00,826.000000,,2013-08-31 21:44:00,
2013-08-31 14:50:00,80.0,57.0,-100.00,NW,316,13.0,19.0,45,0.00,,,0.00,817.000000,,2013-08-31 21:50:00,
2013-08-31 15:23:00,80.0,57.0,-100.00,NW,316,13.0,19.0,45,0.00,,,0.00,817.000000,,2013-08-31 22:23:00,
2013-08-31 15:32:00,80.0,57.0,-100.00,NW,316,13.0,19.0,45,0.00,,,0.00,817.000000,,2013-08-31 22:32:00,
2013-08-31 15:43:00,80.0,57.0,-100.00,NW,316,13.0,19.0,45,0.00,,,0.00,817.000000,,2013-08-31 22:43:00,
2013-08-31 15:50:00,82.0,57.0,-100.00,NW,320,13.0,21.0,42,0.00,,,0.00,687.000000,,2013-08-31 22:50:00,
2013-08-31 16:22:00,82.0,57.0,-100.00,NW,320,13.0,21.0,42,0.00,,,0.00,687.000000,,2013-08-31 23:22:00,
2013-08-31 16:33:00,82.0,57.0,-100.00,NW,320,13.0,21.0,42,0.00,,,0.00,687.000000,,2013-08-31 23:33:00,
2013-08-31 16:42:00,82.0,57.0,-100.00,NW,320,13.0,21.0,42,0.00,,,0.00,687.000000,,2013-08-31 23:42:00,
2013-08-31 16:50:00,79.0,53.0,-100.00,NW,318,14.0,20.0,40,0.00,,,0.00,535.000000,,2013-08-31 23:50:00,
2013-08-31 17:21:00,79.0,53.0,-100.00,NW,318,14.0,20.0,40,0.00,,,0.00,535.000000,,2013-09-01 00:21:00,
2013-08-31 17:32:00,79.0,53.0,-100.00,NW,318,14.0,20.0,40,0.00,,,0.00,535.000000,,2013-09-01 00:32:00,
2013-08-31 17:42:00,79.0,53.0,-100.00,NW,318,14.0,20.0,40,0.00,,,0.00,535.000000,,2013-09-01 00:42:00,
2013-08-31 17:50:00,76.0,50.0,-100.00,NW,321,15.0,20.0,40,0.00,,,0.00,423.000000,,2013-09-01 00:50:00,
2013-08-31 18:21:00,76.0,50.0,-100.00,NW,321,15.0,20.0,40,0.00,,,0.00,423.000000,,2013-09-01 01:21:00,
2013-08-31 18:32:00,76.0,50.0,-100.00,NW,321,15.0,20.0,40,0.00,,,0.00,423.000000,,2013-09-01 01:32:00,
2013-08-31 18:42:00,76.0,50.0,-100.00,NW,321,15.0,20.0,40,0.00,,,0.00,423.000000,,2013-09-01 01:42:00,
2013-08-31 18:50:00,72.0,53.0,-100.00,NW,325,13.0,20.0,51,0.00,,,0.00,238.000000,,2013-09-01 01:50:00,
2013-08-31 19:22:00,72.0,53.0,-100.00,NW,325,13.0,20.0,51,0.00,,,0.00,238.000000,,2013-09-01 02:22:00,
2013-08-31 19:32:00,72.0,53.0,-100.00,NW,325,13.0,20.0,51,0.00,,,0.00,238.000000,,2013-09-01 02:32:00,
2013-08-31 19:42:00,72.0,53.0,-100.00,NW,325,13.0,20.0,51,0.00,,,0.00,238.000000,,2013-09-01 02:42:00,
2013-08-31 19:50:00,67.0,54.0,-100.00,NNW,343,8.0,18.0,62,0.00,,,-99.99,51.000000,,2013-09-01 02:50:00,
2013-08-31 20:23:00,67.0,54.0,-100.00,NNW,343,8.0,18.0,62,0.00,,,-99.99,51.000000,,2013-09-01 03:23:00,
2013-08-31 20:35:00,67.0,54.0,-100.00,NNW,343,8.0,18.0,62,0.00,,,-99.99,51.000000,,2013-09-01 03:35:00,
2013-08-31 20:44:00,67.0,54.0,-100.00,NNW,343,8.0,18.0,62,0.00,,,-99.99,51.000000,,2013-09-01 03:44:00,
2013-08-31 20:50:00,64.0,53.0,-100.00,North,356,6.0,13.0,68,0.00,,,0.00,1.000000,,2013-09-01 03:50:00,
2013-08-31 21:24:00,64.0,53.0,-100.00,North,356,6.0,13.0,68,0.00,,,0.00,1.000000,,2013-09-01 04:24:00,
2013-08-31 21:34:00,64.0,53.0,-100.00,North,356,6.0,13.0,68,0.00,,,0.00,1.000000,,2013-09-01 04:34:00,
2013-08-31 21:43:00,64.0,53.0,-100.00,North,356,6.0,13.0,68,0.00,,,0.00,1.000000,,2013-09-01 04:43:00,
2013-08-31 21:50:00,62.0,54.0,-100.00,NNW,345,4.0,6.0,74,0.00,,,0.00,1.000000,,2013-09-01 04:50:00,
2013-08-31 22:23:00,62.0,54.0,-100.00,NNW,345,4.0,6.0,74,0.00,,,0.00,1.000000,,2013-09-01 05:23:00,
2013-08-31 22:34:00,62.0,54.0,-100.00,NNW,345,4.0,6.0,74,0.00,,,0.00,1.000000,,2013-09-01 05:34:00,
2013-08-31 22:43:00,62.0,54.0,-100.00,NNW,345,4.0,6.0,74,0.00,,,0.00,1.000000,,2013-09-01 05:43:00,
2013-08-31 22:50:00,60.0,53.0,-100.00,North,354,4.0,6.0,79,0.00,,,-99.99,0.000000,,2013-09-01 05:50:00,
2013-08-31 23:22:00,60.0,53.0,-100.00,North,354,4.0,6.0,79,0.00,,,-99.99,0.000000,,2013-09-01 06:22:00,
2013-08-31 23:32:00,60.0,53.0,-100.00,North,354,4.0,6.0,79,0.00,,,-99.99,0.000000,,2013-09-01 06:32:00,
2013-08-31 23:42:00,60.0,53.0,-100.00,North,354,4.0,6.0,79,0.00,,,-99.99,0.000000,,2013-09-01 06:42:00,
2013-08-31 23:50:00,57.0,52.0,-100.00,ESE,121,1.0,5.0,82,0.00,,,0.00,0.000000,,2013-09-01 06:50:00,